ARG1793 SARI-SABE

Flight info

Callsign ARG1793
Flight time 1h 47m
Altitude 34000
Route NAIDE UT667 GEMSU UN785 GUA UZ129 PAGON PAGON8Q
Aircraft B738/M-SDE2E3FGHIRWXY/LB1

Departure

Time 2026-04-25 01:05
Airport Cataratas Del Iguazú International Airport (SARI)

Arrival

Time 2026-04-25 02:52
Airport Aeroparque Jorge Newbery (SABE)
Time Latitude Longitude Altitude Speed Heading
2026-04-25 00:35 -25.73226 -54.47675 931 ft 0 kts 25°
2026-04-25 00:54 -25.73240 -54.47683 929 ft 3 kts 28°
2026-04-25 00:55 -25.73258 -54.47697 928 ft 3 kts 54°
2026-04-25 00:55 -25.73260 -54.47719 928 ft 3 kts 115°
2026-04-25 00:55 -25.73254 -54.47733 929 ft 0 kts 115°
2026-04-25 00:58 -25.73257 -54.47727 928 ft 1 kts 115°
2026-04-25 00:58 -25.73263 -54.47712 927 ft 3 kts 114°
2026-04-25 00:59 -25.73273 -54.47688 928 ft 4 kts 116°
2026-04-25 00:59 -25.73287 -54.47656 929 ft 5 kts 115°
2026-04-25 00:59 -25.73303 -54.47619 927 ft 5 kts 118°
2026-04-25 00:59 -25.73330 -54.47590 928 ft 6 kts 140°
2026-04-25 01:00 -25.73371 -54.47555 928 ft 9 kts 142°
2026-04-25 01:00 -25.73431 -54.47508 926 ft 12 kts 145°
2026-04-25 01:00 -25.73506 -54.47448 927 ft 15 kts 145°
2026-04-25 01:00 -25.73602 -54.47373 927 ft 19 kts 144°
2026-04-25 01:01 -25.73712 -54.47285 929 ft 20 kts 142°
2026-04-25 01:01 -25.73805 -54.47162 928 ft 21 kts 118°
2026-04-25 01:01 -25.73866 -54.47016 929 ft 21 kts 115°
2026-04-25 01:01 -25.73924 -54.46869 927 ft 22 kts 111°
2026-04-25 01:02 -25.73990 -54.46716 930 ft 23 kts 114°
2026-04-25 01:02 -25.74060 -54.46552 924 ft 24 kts 116°
2026-04-25 01:02 -25.74131 -54.46383 924 ft 23 kts 115°
2026-04-25 01:02 -25.74197 -54.46223 926 ft 23 kts 113°
2026-04-25 01:03 -25.74263 -54.46068 927 ft 22 kts 115°
2026-04-25 01:03 -25.74309 -54.45953 927 ft 13 kts 107°
2026-04-25 01:03 -25.74311 -54.45862 927 ft 11 kts 113°
2026-04-25 01:03 -25.74342 -54.45858 925 ft 5 kts 230°
2026-04-25 01:04 -25.74336 -54.45889 925 ft 9 kts 292°
2026-04-25 01:04 -25.74221 -54.46166 928 ft 81 kts 294°
2026-04-25 01:04 -25.73872 -54.47000 928 ft 154 kts 295°
2026-04-25 01:04 -25.73355 -54.48245 1222 ft 192 kts 295°
2026-04-25 01:05 -25.72851 -54.49556 2442 ft 181 kts 289°
2026-04-25 01:05 -25.72845 -54.50975 3138 ft 205 kts 252°
2026-04-25 01:05 -25.73759 -54.52325 3254 ft 238 kts 215°
2026-04-25 01:05 -25.75380 -54.52895 3668 ft 253 kts 189°
2026-04-25 01:06 -25.77187 -54.53244 4038 ft 272 kts 193°
2026-04-25 01:06 -25.79043 -54.53749 4833 ft 275 kts 197°
2026-04-25 01:06 -25.80872 -54.54375 5740 ft 276 kts 200°
2026-04-25 01:06 -25.82681 -54.55102 6583 ft 278 kts 203°
2026-04-25 01:07 -25.84485 -54.55910 7355 ft 281 kts 205°
2026-04-25 01:07 -25.86282 -54.56780 8139 ft 283 kts 206°
2026-04-25 01:07 -25.88081 -54.57698 8932 ft 286 kts 208°
2026-04-25 01:07 -25.89884 -54.58653 9750 ft 289 kts 208°
2026-04-25 01:08 -25.91703 -54.59643 10396 ft 296 kts 209°
2026-04-25 01:08 -25.93622 -54.60709 10580 ft 321 kts 210°
2026-04-25 01:08 -25.95684 -54.61870 10746 ft 344 kts 210°
2026-04-25 01:08 -25.97866 -54.63109 11065 ft 358 kts 210°
2026-04-25 01:09 -26.00100 -54.64381 11617 ft 364 kts 210°
2026-04-25 01:09 -26.02361 -54.65674 12256 ft 367 kts 210°
2026-04-25 01:09 -26.04638 -54.66979 12902 ft 370 kts 210°
2026-04-25 01:09 -26.06935 -54.68300 13499 ft 374 kts 211°
2026-04-25 01:10 -26.09259 -54.69640 14058 ft 378 kts 211°
2026-04-25 01:10 -26.11602 -54.70991 14633 ft 380 kts 211°
2026-04-25 01:10 -26.13956 -54.72351 15220 ft 382 kts 211°
2026-04-25 01:10 -26.16319 -54.73716 15801 ft 384 kts 211°
2026-04-25 01:11 -26.18700 -54.75094 16360 ft 386 kts 211°
2026-04-25 01:11 -26.21095 -54.76480 16908 ft 389 kts 211°
2026-04-25 01:11 -26.23506 -54.77876 17451 ft 392 kts 211°
2026-04-25 01:11 -26.25931 -54.79281 18012 ft 394 kts 211°
2026-04-25 01:12 -26.28338 -54.80676 18497 ft 396 kts 212°
2026-04-25 01:12 -26.30820 -54.82115 18976 ft 397 kts 212°
2026-04-25 01:12 -26.33274 -54.83538 19478 ft 398 kts 212°
2026-04-25 01:12 -26.35732 -54.84964 19951 ft 399 kts 212°
2026-04-25 01:13 -26.38196 -54.86395 20400 ft 400 kts 213°
2026-04-25 01:13 -26.40672 -54.87834 20848 ft 402 kts 213°
2026-04-25 01:13 -26.43155 -54.89277 21283 ft 403 kts 213°
2026-04-25 01:13 -26.45648 -54.90727 21716 ft 404 kts 213°
2026-04-25 01:14 -26.48145 -54.92180 22123 ft 406 kts 213°
2026-04-25 01:14 -26.50657 -54.93643 22471 ft 409 kts 214°
2026-04-25 01:14 -26.53181 -54.95113 22881 ft 409 kts 214°
2026-04-25 01:14 -26.55707 -54.96585 23274 ft 410 kts 214°
2026-04-25 01:15 -26.58240 -54.98061 23624 ft 412 kts 214°
2026-04-25 01:15 -26.60728 -54.99639 23882 ft 410 kts 219°
2026-04-25 01:15 -26.63110 -55.01395 24155 ft 411 kts 220°
2026-04-25 01:15 -26.65468 -55.03206 24425 ft 412 kts 221°
2026-04-25 01:16 -26.67803 -55.05071 24680 ft 413 kts 222°
2026-04-25 01:16 -26.70081 -55.06965 24961 ft 414 kts 223°
2026-04-25 01:16 -26.72386 -55.08900 25259 ft 415 kts 223°
2026-04-25 01:16 -26.74695 -55.10845 25532 ft 416 kts 223°
2026-04-25 01:17 -26.77009 -55.12799 25790 ft 418 kts 224°
2026-04-25 01:17 -26.79295 -55.14807 26032 ft 419 kts 225°
2026-04-25 01:17 -26.81569 -55.16858 26292 ft 420 kts 225°
2026-04-25 01:17 -26.83838 -55.18916 26577 ft 421 kts 225°
2026-04-25 01:18 -26.86114 -55.20985 26853 ft 422 kts 225°
2026-04-25 01:18 -26.88389 -55.23057 27098 ft 423 kts 225°
2026-04-25 01:18 -26.90673 -55.25140 27344 ft 424 kts 225°
2026-04-25 01:18 -26.92964 -55.27231 27582 ft 425 kts 225°
2026-04-25 01:19 -26.95258 -55.29324 27834 ft 426 kts 225°
2026-04-25 01:19 -26.97561 -55.31425 28073 ft 427 kts 225°
2026-04-25 01:19 -26.99865 -55.33528 28313 ft 428 kts 225°
2026-04-25 01:19 -27.02181 -55.35638 28568 ft 429 kts 225°
2026-04-25 01:20 -27.04493 -55.37739 28917 ft 427 kts 226°
2026-04-25 01:20 -27.06796 -55.39826 29342 ft 424 kts 226°
2026-04-25 01:20 -27.09086 -55.41890 29744 ft 422 kts 226°
2026-04-25 01:20 -27.11374 -55.43948 30093 ft 421 kts 226°
2026-04-25 01:21 -27.13766 -55.45869 30344 ft 429 kts 218°
2026-04-25 01:21 -27.16421 -55.47435 30593 ft 433 kts 214°
2026-04-25 01:21 -27.19149 -55.48882 30835 ft 436 kts 211°
2026-04-25 01:21 -27.22053 -55.49995 31111 ft 446 kts 204°
2026-04-25 01:22 -27.25094 -55.50784 31419 ft 450 kts 200°
2026-04-25 01:22 -27.28174 -55.51430 31687 ft 451 kts 199°
2026-04-25 01:22 -27.31273 -55.52046 31925 ft 452 kts 199°
2026-04-25 01:22 -27.34362 -55.52678 32193 ft 451 kts 200°
2026-04-25 01:23 -27.37448 -55.53340 32473 ft 450 kts 200°
2026-04-25 01:23 -27.40518 -55.54026 32742 ft 450 kts 201°
2026-04-25 01:23 -27.43587 -55.54726 32996 ft 450 kts 201°
2026-04-25 01:23 -27.46652 -55.55432 33277 ft 450 kts 201°
2026-04-25 01:24 -27.49718 -55.56139 33558 ft 449 kts 201°
2026-04-25 01:24 -27.52780 -55.56843 33821 ft 450 kts 201°
2026-04-25 01:24 -27.55851 -55.57547 34041 ft 450 kts 201°
2026-04-25 01:25 -27.61769 -55.59436 34024 ft 435 kts 213°
2026-04-25 01:25 -27.64409 -55.60993 34017 ft 422 kts 222°
2026-04-25 01:25 -27.66849 -55.62817 34018 ft 420 kts 223°
2026-04-25 01:26 -27.71679 -55.66500 34030 ft 419 kts 223°
2026-04-25 01:26 -27.76504 -55.70166 34020 ft 418 kts 223°
2026-04-25 01:27 -27.81337 -55.73813 34015 ft 417 kts 223°
2026-04-25 01:27 -27.86168 -55.77449 34023 ft 417 kts 223°
2026-04-25 01:28 -27.93406 -55.82902 34025 ft 417 kts 223°
2026-04-25 01:28 -27.98233 -55.86543 34023 ft 417 kts 223°
2026-04-25 01:29 -28.03055 -55.90184 34022 ft 417 kts 223°
2026-04-25 01:29 -28.07883 -55.93835 34021 ft 417 kts 224°
2026-04-25 01:30 -28.12716 -55.97492 34024 ft 418 kts 224°
2026-04-25 01:30 -28.17550 -56.01155 34017 ft 418 kts 224°
2026-04-25 01:31 -28.22385 -56.04823 34024 ft 418 kts 224°
2026-04-25 01:31 -28.27225 -56.08497 34021 ft 418 kts 224°
2026-04-25 01:32 -28.32052 -56.12166 34025 ft 417 kts 224°
2026-04-25 01:32 -28.36867 -56.15831 34014 ft 416 kts 224°
2026-04-25 01:33 -28.41671 -56.19490 34028 ft 415 kts 224°
2026-04-25 01:33 -28.46455 -56.23138 34023 ft 413 kts 224°
2026-04-25 01:34 -28.51215 -56.26773 34017 ft 411 kts 224°
2026-04-25 01:34 -28.55956 -56.30398 34019 ft 410 kts 224°
2026-04-25 01:35 -28.60678 -56.34013 34018 ft 408 kts 225°
2026-04-25 01:35 -28.65385 -56.37620 34018 ft 407 kts 225°
2026-04-25 01:36 -28.70080 -56.41222 34018 ft 407 kts 225°
2026-04-25 01:36 -28.74772 -56.44827 34021 ft 406 kts 225°
2026-04-25 01:37 -28.79457 -56.48431 34026 ft 406 kts 225°
2026-04-25 01:37 -28.84144 -56.52040 34030 ft 407 kts 225°
2026-04-25 01:38 -28.88837 -56.55655 34026 ft 407 kts 225°
2026-04-25 01:38 -28.93528 -56.59269 34030 ft 407 kts 225°
2026-04-25 01:39 -28.98191 -56.62869 34030 ft 407 kts 225°
2026-04-25 01:39 -29.02884 -56.66499 34030 ft 408 kts 225°
2026-04-25 01:40 -29.07580 -56.70134 34029 ft 408 kts 225°
2026-04-25 01:40 -29.12277 -56.73776 34025 ft 407 kts 225°
2026-04-25 01:41 -29.16965 -56.77414 34029 ft 407 kts 225°
2026-04-25 01:41 -29.20858 -56.80438 34028 ft 407 kts 226°
2026-04-25 01:42 -29.25562 -56.84097 34027 ft 406 kts 226°
2026-04-25 01:42 -29.30200 -56.87708 34028 ft 405 kts 226°
2026-04-25 01:43 -29.34860 -56.91339 34030 ft 405 kts 226°
2026-04-25 01:43 -29.38983 -56.94557 34029 ft 404 kts 226°
2026-04-25 01:44 -29.43625 -56.98183 34031 ft 403 kts 226°
2026-04-25 01:44 -29.48257 -57.01806 34033 ft 403 kts 226°
2026-04-25 01:45 -29.52880 -57.05425 34033 ft 402 kts 226°
2026-04-25 01:45 -29.57497 -57.09044 34033 ft 402 kts 226°
2026-04-25 01:46 -29.62109 -57.12663 34033 ft 401 kts 227°
2026-04-25 01:46 -29.66712 -57.16280 34036 ft 401 kts 227°
2026-04-25 01:47 -29.71313 -57.19899 34039 ft 400 kts 227°
2026-04-25 01:47 -29.75908 -57.23517 34036 ft 400 kts 227°
2026-04-25 01:48 -29.80499 -57.27136 34041 ft 400 kts 227°
2026-04-25 01:48 -29.85086 -57.30755 34042 ft 399 kts 227°
2026-04-25 01:49 -29.89664 -57.34372 34042 ft 399 kts 227°
2026-04-25 01:49 -29.94236 -57.37989 34042 ft 398 kts 227°
2026-04-25 01:50 -29.98797 -57.41601 34048 ft 398 kts 227°
2026-04-25 01:50 -30.03332 -57.45197 34044 ft 398 kts 227°
2026-04-25 01:51 -30.07882 -57.48809 34044 ft 396 kts 228°
2026-04-25 01:51 -30.12419 -57.52414 34044 ft 395 kts 228°
2026-04-25 01:52 -30.16942 -57.56014 34047 ft 394 kts 228°
2026-04-25 01:52 -30.21450 -57.59607 34051 ft 393 kts 228°
2026-04-25 01:53 -30.26038 -57.63095 34042 ft 402 kts 222°
2026-04-25 01:53 -30.28605 -57.64491 34047 ft 415 kts 215°
2026-04-25 01:53 -30.31397 -57.65535 34053 ft 423 kts 212°
2026-04-25 01:54 -30.37055 -57.67452 34047 ft 423 kts 211°
2026-04-25 01:54 -30.42698 -57.69377 34049 ft 422 kts 212°
2026-04-25 01:55 -30.48311 -57.71328 34050 ft 421 kts 212°
2026-04-25 01:55 -30.53918 -57.73293 34052 ft 420 kts 212°
2026-04-25 01:56 -30.59507 -57.75255 34058 ft 420 kts 212°
2026-04-25 01:56 -30.65091 -57.77217 34059 ft 419 kts 213°
2026-04-25 01:57 -30.73468 -57.80151 34056 ft 419 kts 213°
2026-04-25 01:58 -30.79057 -57.82094 34059 ft 419 kts 213°
2026-04-25 01:58 -30.84603 -57.84026 34065 ft 419 kts 213°
2026-04-25 01:59 -30.90179 -57.85975 34057 ft 418 kts 213°
2026-04-25 01:59 -30.95753 -57.87926 34062 ft 418 kts 213°
2026-04-25 02:00 -31.01327 -57.89881 34055 ft 418 kts 213°
2026-04-25 02:00 -31.06899 -57.91837 34053 ft 418 kts 213°
2026-04-25 02:01 -31.12470 -57.93795 34059 ft 418 kts 213°
2026-04-25 02:01 -31.18048 -57.95759 34066 ft 419 kts 213°
2026-04-25 02:02 -31.23628 -57.97725 34062 ft 419 kts 213°
2026-04-25 02:02 -31.29208 -57.99693 34061 ft 420 kts 212°
2026-04-25 02:03 -31.34805 -58.01670 34052 ft 420 kts 212°
2026-04-25 02:03 -31.40394 -58.03646 34056 ft 420 kts 212°
2026-04-25 02:04 -31.45951 -58.05613 34057 ft 420 kts 212°
2026-04-25 02:04 -31.51551 -58.07599 34062 ft 421 kts 212°
2026-04-25 02:05 -31.57152 -58.09587 34065 ft 421 kts 212°
2026-04-25 02:05 -31.62767 -58.11583 34063 ft 421 kts 211°
2026-04-25 02:06 -31.68378 -58.13579 34059 ft 422 kts 211°
2026-04-25 02:06 -31.73992 -58.15580 34062 ft 422 kts 211°
2026-04-25 02:07 -31.79609 -58.17584 34063 ft 422 kts 211°
2026-04-25 02:07 -31.85230 -58.19591 34056 ft 422 kts 210°
2026-04-25 02:08 -31.90856 -58.21604 34057 ft 422 kts 210°
2026-04-25 02:08 -31.96483 -58.23619 34059 ft 423 kts 210°
2026-04-25 02:09 -32.02109 -58.25637 34060 ft 423 kts 210°
2026-04-25 02:09 -32.07743 -58.27660 34061 ft 423 kts 210°
2026-04-25 02:10 -32.13374 -58.29685 34051 ft 423 kts 209°
2026-04-25 02:10 -32.19010 -58.31715 34055 ft 423 kts 209°
2026-04-25 02:11 -32.24640 -58.33746 34058 ft 423 kts 209°
2026-04-25 02:11 -32.30272 -58.35779 34060 ft 423 kts 209°
2026-04-25 02:12 -32.35899 -58.37806 34057 ft 423 kts 208°
2026-04-25 02:12 -32.41529 -58.39826 34050 ft 422 kts 208°
2026-04-25 02:13 -32.47121 -58.41840 33767 ft 425 kts 208°
2026-04-25 02:13 -32.49926 -58.42848 33427 ft 418 kts 208°
2026-04-25 02:13 -32.52690 -58.43840 33015 ft 412 kts 208°
2026-04-25 02:13 -32.55415 -58.44819 32580 ft 408 kts 208°
2026-04-25 02:14 -32.58125 -58.45798 32156 ft 404 kts 207°
2026-04-25 02:14 -32.60798 -58.46765 31740 ft 400 kts 207°
2026-04-25 02:14 -32.63452 -58.47727 31321 ft 397 kts 207°
2026-04-25 02:14 -32.66083 -58.48681 30914 ft 394 kts 207°
2026-04-25 02:15 -32.68693 -58.49628 30514 ft 391 kts 206°
2026-04-25 02:15 -32.71283 -58.50568 30110 ft 388 kts 206°
2026-04-25 02:15 -32.73855 -58.51503 29631 ft 385 kts 206°
2026-04-25 02:15 -32.76409 -58.52430 29180 ft 382 kts 206°
2026-04-25 02:16 -32.78935 -58.53347 28754 ft 378 kts 206°
2026-04-25 02:16 -32.81438 -58.54257 28335 ft 375 kts 206°
2026-04-25 02:16 -32.83918 -58.55160 27919 ft 371 kts 206°
2026-04-25 02:16 -32.86379 -58.56056 27514 ft 368 kts 206°
2026-04-25 02:17 -32.88822 -58.56947 27104 ft 365 kts 206°
2026-04-25 02:17 -32.91236 -58.57829 26714 ft 363 kts 205°
2026-04-25 02:17 -32.93648 -58.58710 26318 ft 360 kts 205°
2026-04-25 02:17 -32.96008 -58.59571 25930 ft 359 kts 205°
2026-04-25 02:18 -32.98385 -58.60438 25540 ft 357 kts 205°
2026-04-25 02:18 -33.00763 -58.61273 25156 ft 358 kts 201°
2026-04-25 02:18 -33.03241 -58.61751 24762 ft 363 kts 194°
2026-04-25 02:18 -33.05638 -58.62036 24378 ft 364 kts 193°
2026-04-25 02:19 -33.08160 -58.62305 23980 ft 363 kts 192°
2026-04-25 02:19 -33.10670 -58.62569 23591 ft 362 kts 192°
2026-04-25 02:19 -33.13177 -58.62839 23134 ft 361 kts 192°
2026-04-25 02:19 -33.15674 -58.63115 22724 ft 359 kts 192°
2026-04-25 02:20 -33.18154 -58.63394 22320 ft 357 kts 192°
2026-04-25 02:20 -33.20617 -58.63676 21934 ft 354 kts 192°
2026-04-25 02:20 -33.23059 -58.63958 21564 ft 352 kts 192°
2026-04-25 02:20 -33.25496 -58.64241 21184 ft 350 kts 192°
2026-04-25 02:21 -33.27912 -58.64524 20808 ft 348 kts 192°
2026-04-25 02:21 -33.30318 -58.64805 20439 ft 347 kts 192°
2026-04-25 02:21 -33.32715 -58.65086 20073 ft 345 kts 192°
2026-04-25 02:21 -33.35097 -58.65365 19696 ft 343 kts 192°
2026-04-25 02:22 -33.37468 -58.65643 19333 ft 342 kts 191°
2026-04-25 02:22 -33.39837 -58.65921 18960 ft 341 kts 191°
2026-04-25 02:22 -33.42191 -58.66198 18595 ft 340 kts 191°
2026-04-25 02:22 -33.44541 -58.66474 18198 ft 339 kts 191°
2026-04-25 02:23 -33.46887 -58.66750 17792 ft 338 kts 191°
2026-04-25 02:23 -33.49222 -58.67025 17403 ft 336 kts 190°
2026-04-25 02:23 -33.51537 -58.67297 17029 ft 334 kts 190°
2026-04-25 02:23 -33.53840 -58.67568 16663 ft 332 kts 190°
2026-04-25 02:24 -33.56131 -58.67837 16302 ft 330 kts 189°
2026-04-25 02:24 -33.58406 -58.68105 15941 ft 328 kts 189°
2026-04-25 02:24 -33.60670 -58.68372 15591 ft 326 kts 189°
2026-04-25 02:24 -33.62922 -58.68638 15224 ft 324 kts 189°
2026-04-25 02:25 -33.65161 -58.68903 14878 ft 323 kts 188°
2026-04-25 02:25 -33.67393 -58.69167 14527 ft 321 kts 188°
2026-04-25 02:25 -33.69615 -58.69429 14178 ft 320 kts 188°
2026-04-25 02:25 -33.71831 -58.69691 13823 ft 319 kts 188°
2026-04-25 02:26 -33.74034 -58.69952 13433 ft 318 kts 188°
2026-04-25 02:26 -33.76235 -58.70213 13058 ft 317 kts 187°
2026-04-25 02:26 -33.78421 -58.70471 12702 ft 315 kts 187°
2026-04-25 02:26 -33.80593 -58.70729 12346 ft 313 kts 187°
2026-04-25 02:27 -33.82752 -58.70985 11999 ft 311 kts 187°
2026-04-25 02:27 -33.84902 -58.71241 11656 ft 309 kts 187°
2026-04-25 02:27 -33.87037 -58.71495 11312 ft 308 kts 187°
2026-04-25 02:27 -33.89165 -58.71747 10967 ft 306 kts 187°
2026-04-25 02:28 -33.91279 -58.71997 10626 ft 305 kts 187°
2026-04-25 02:28 -33.93386 -58.72237 10373 ft 301 kts 186°
2026-04-25 02:28 -33.95433 -58.72446 10262 ft 291 kts 186°
2026-04-25 02:28 -33.97422 -58.72643 10144 ft 282 kts 186°
2026-04-25 02:29 -33.98705 -58.72771 10068 ft 277 kts 186°
2026-04-25 02:29 -34.01253 -58.73027 9715 ft 274 kts 186°
2026-04-25 02:29 -34.02507 -58.73153 9521 ft 272 kts 186°
2026-04-25 02:29 -34.04390 -58.73345 9253 ft 270 kts 186°
2026-04-25 02:30 -34.06259 -58.73535 8972 ft 269 kts 186°
2026-04-25 02:30 -34.08742 -58.73788 8604 ft 267 kts 186°
2026-04-25 02:30 -34.09965 -58.73913 8416 ft 266 kts 186°
2026-04-25 02:30 -34.11802 -58.74101 8143 ft 264 kts 186°
2026-04-25 02:31 -34.13633 -58.74288 7884 ft 263 kts 186°
2026-04-25 02:31 -34.15455 -58.74475 7597 ft 262 kts 186°
2026-04-25 02:31 -34.17268 -58.74660 7325 ft 261 kts 186°
2026-04-25 02:31 -34.19078 -58.74846 7060 ft 261 kts 186°
2026-04-25 02:32 -34.20881 -58.75031 6790 ft 260 kts 186°
2026-04-25 02:32 -34.22681 -58.75216 6522 ft 259 kts 186°
2026-04-25 02:32 -34.24477 -58.75401 6240 ft 259 kts 186°
2026-04-25 02:32 -34.26267 -58.75585 5957 ft 258 kts 186°
2026-04-25 02:33 -34.28051 -58.75767 5680 ft 257 kts 186°
2026-04-25 02:33 -34.29828 -58.75949 5416 ft 256 kts 186°
2026-04-25 02:33 -34.31602 -58.76027 5131 ft 256 kts 172°
2026-04-25 02:33 -34.33229 -58.75208 4946 ft 256 kts 144°
2026-04-25 02:34 -34.34550 -58.73727 4775 ft 261 kts 135°
2026-04-25 02:34 -34.35818 -58.72122 4570 ft 266 kts 134°
2026-04-25 02:34 -34.36932 -58.70700 4396 ft 267 kts 134°
2026-04-25 02:34 -34.38214 -58.69077 4198 ft 265 kts 134°
2026-04-25 02:35 -34.39482 -58.67484 3999 ft 262 kts 134°
2026-04-25 02:35 -34.40748 -58.65903 3810 ft 260 kts 134°
2026-04-25 02:35 -34.41998 -58.64344 3613 ft 256 kts 134°
2026-04-25 02:35 -34.43216 -58.62825 3385 ft 254 kts 134°
2026-04-25 02:36 -34.44455 -58.61281 3187 ft 250 kts 134°
2026-04-25 02:36 -34.45642 -58.59802 3031 ft 245 kts 134°
2026-04-25 02:36 -34.46698 -58.58240 2969 ft 235 kts 123°
2026-04-25 02:36 -34.47596 -58.56597 2570 ft 240 kts 122°
2026-04-25 02:37 -34.48503 -58.54921 2289 ft 235 kts 122°
2026-04-25 02:37 -34.49383 -58.53318 2031 ft 226 kts 122°
2026-04-25 02:37 -34.50232 -58.51787 1770 ft 209 kts 122°
2026-04-25 02:37 -34.50998 -58.50406 1673 ft 185 kts 122°
2026-04-25 02:38 -34.51669 -58.49220 1706 ft 158 kts 123°
2026-04-25 02:38 -34.52268 -58.48153 1584 ft 152 kts 121°
2026-04-25 02:38 -34.52848 -58.47095 1418 ft 148 kts 122°
2026-04-25 02:38 -34.53493 -58.45911 1347 ft 200 kts 122°
2026-04-25 02:39 -34.54340 -58.44398 1741 ft 238 kts 123°
2026-04-25 02:39 -34.55291 -58.42744 2687 ft 237 kts 123°
2026-04-25 02:39 -34.56204 -58.41114 3466 ft 227 kts 122°
2026-04-25 02:39 -34.57051 -58.39579 3322 ft 212 kts 123°
2026-04-25 02:40 -34.57867 -58.38130 3127 ft 204 kts 123°
2026-04-25 02:40 -34.58665 -58.36727 3008 ft 201 kts 123°
2026-04-25 02:40 -34.59295 -58.35229 2989 ft 199 kts 101°
2026-04-25 02:40 -34.59267 -58.33587 3002 ft 195 kts 70°
2026-04-25 02:41 -34.58579 -58.32201 3001 ft 193 kts 42°
2026-04-25 02:41 -34.57592 -58.31105 3000 ft 192 kts 40°
2026-04-25 02:41 -34.56603 -58.30018 2996 ft 191 kts 40°
2026-04-25 02:41 -34.55613 -58.28931 2994 ft 198 kts 40°
2026-04-25 02:42 -34.54529 -58.27759 3001 ft 217 kts 36°
2026-04-25 02:42 -34.53231 -58.26849 2965 ft 216 kts 10°
2026-04-25 02:42 -34.51787 -58.27062 2999 ft 213 kts 329°
2026-04-25 02:42 -34.50714 -58.28302 3013 ft 216 kts 310°
2026-04-25 02:43 -34.49745 -58.29719 3003 ft 219 kts 310°
2026-04-25 02:43 -34.48778 -58.31141 2994 ft 218 kts 310°
2026-04-25 02:43 -34.47828 -58.32542 2975 ft 215 kts 310°
2026-04-25 02:43 -34.46883 -58.33939 2989 ft 212 kts 310°
2026-04-25 02:44 -34.45948 -58.35322 2991 ft 214 kts 310°
2026-04-25 02:44 -34.44942 -58.36808 3032 ft 245 kts 309°
2026-04-25 02:44 -34.43835 -58.38439 3001 ft 251 kts 310°
2026-04-25 02:44 -34.42763 -58.40018 2975 ft 240 kts 310°
2026-04-25 02:45 -34.41731 -58.41536 2960 ft 227 kts 310°
2026-04-25 02:45 -34.40756 -58.42971 2952 ft 214 kts 310°
2026-04-25 02:45 -34.39826 -58.44339 2961 ft 208 kts 310°
2026-04-25 02:45 -34.38904 -58.45695 2975 ft 210 kts 310°
2026-04-25 02:46 -34.37966 -58.47072 2979 ft 214 kts 310°
2026-04-25 02:46 -34.37149 -58.48652 2976 ft 237 kts 285°
2026-04-25 02:46 -34.37248 -58.50674 2973 ft 250 kts 248°
2026-04-25 02:46 -34.38347 -58.52284 2985 ft 253 kts 219°
2026-04-25 02:47 -34.39789 -58.53539 2966 ft 254 kts 217°
2026-04-25 02:47 -34.41192 -58.54790 2944 ft 247 kts 219°
2026-04-25 02:47 -34.42497 -58.56032 2952 ft 234 kts 220°
2026-04-25 02:47 -34.43702 -58.57208 2942 ft 214 kts 217°
2026-04-25 02:48 -34.45019 -58.57827 2967 ft 199 kts 186°
2026-04-25 02:48 -34.46408 -58.57584 2848 ft 208 kts 157°
2026-04-25 02:48 -34.47548 -58.56560 2618 ft 203 kts 129°
2026-04-25 02:48 -34.48367 -58.55198 2366 ft 196 kts 122°
2026-04-25 02:49 -34.49113 -58.53841 2116 ft 191 kts 122°
2026-04-25 02:49 -34.49838 -58.52520 1874 ft 184 kts 122°
2026-04-25 02:49 -34.50524 -58.51296 1736 ft 166 kts 122°
2026-04-25 02:49 -34.51137 -58.50198 1557 ft 150 kts 122°
2026-04-25 02:50 -34.51707 -58.49169 1345 ft 145 kts 122°
2026-04-25 02:50 -34.52272 -58.48149 1162 ft 146 kts 122°
2026-04-25 02:50 -34.52838 -58.47128 963 ft 145 kts 123°
2026-04-25 02:50 -34.53394 -58.46123 743 ft 142 kts 123°
2026-04-25 02:51 -34.53928 -58.45150 588 ft 137 kts 126°
2026-04-25 02:51 -34.54452 -58.44222 395 ft 131 kts 123°
2026-04-25 02:51 -34.54954 -58.43317 213 ft 127 kts 124°
2026-04-25 02:51 -34.55442 -58.42442 42 ft 122 kts 124°
2026-04-25 02:52 -34.55874 -58.41668 26 ft 93 kts 124°
2026-04-25 02:52 -34.56153 -58.41169 28 ft 50 kts 124°
2026-04-25 02:52 -34.56282 -58.40939 27 ft 27 kts 124°
2026-04-25 02:52 -34.56372 -58.40780 28 ft 21 kts 124°
2026-04-25 02:53 -34.56393 -58.40675 28 ft 9 kts 52°
2026-04-25 02:53 -34.56337 -58.40684 27 ft 9 kts 327°
2026-04-25 02:53 -34.56284 -58.40740 25 ft 12 kts 317°
2026-04-25 02:53 -34.56214 -58.40816 30 ft 14 kts 314°
2026-04-25 02:54 -34.56161 -58.40907 26 ft 13 kts 296°
2026-04-25 02:54 -34.56153 -58.40924 24 ft 0 kts 300°
2026-04-25 02:55 -34.56153 -58.40925 24 ft 1 kts 300°
2026-04-25 02:55 -34.56141 -58.40949 27 ft 7 kts 303°
2026-04-25 02:55 -34.56101 -58.41017 28 ft 12 kts 307°
2026-04-25 02:55 -34.56050 -58.41099 27 ft 12 kts 307°
2026-04-25 02:56 -34.56001 -58.41178 27 ft 12 kts 307°
2026-04-25 02:56 -34.55956 -58.41250 28 ft 9 kts 307°
2026-04-25 02:56 -34.55919 -58.41297 26 ft 6 kts 334°
2026-04-25 02:56 -34.55878 -58.41291 28 ft 6 kts 26°
2026-04-25 02:57 -34.55838 -58.41291 26 ft 6 kts 330°
2026-04-25 02:57 -34.55811 -58.41330 27 ft 3 kts 304°
2026-04-25 02:57 -34.55796 -58.41348 28 ft 3 kts 343°
2026-04-25 02:57 -34.55777 -58.41338 25 ft 2 kts 28°
2026-04-25 02:58 -34.55765 -58.41329 25 ft 2 kts 32°
2026-04-25 02:58 -34.55758 -58.41323 24 ft 0 kts 33°